Regional Weather Roundup
Issued by NWS

Home | Current Version | Previous Version | Graphics & Text | Print | Product List | Glossary On
Versions: 1 2 3 4 5 6 7 8 9 10 11 12 13 14 15 16 17 18 19 20 21 22 23 24 25 26 27
000
ASUS45 KTFX 191610
RWRMT
MONTANA REGIONAL WEATHER ROUNDUP
NATIONAL WEATHER SERVICE GREAT FALLS MT
1000 AM MDT THU APR 19 2018

NOTE: "FAIR" INDICATES FEW OR NO CLOUDS BELOW 12000 FEET WITH NO
SIGNIFICANT WEATHER AND/OR OBSTRUCTIONS TO VISIBILITY.

MTZ001>007-043-191700-
WEST OF THE DIVIDE

CITY           SKY/WX    TMP DP  RH WIND       PRES   REMARKS
KALISPELL      FAIR      44  27  51 NE9       30.14S
MISSOULA       FAIR      42  27  55 W3        30.13S
BUTTE          FAIR      39  22  50 N3        30.09S
MULLAN PASS    FAIR      37  21  52 VRB5      30.08R
ANACONDA         N/A     39  21  48 N5        30.10S
DEER LODGE       N/A     39  27  60 CALM      30.13S
HAMILTON         N/A     43  25  49 MISG      30.12F
RONAN            N/A     41  28  60 CALM      30.16S
$$

MTZ008-052>055-191700-
SOUTHWEST MONTANA

CITY           SKY/WX    TMP DP  RH WIND       PRES   REMARKS
BOZEMAN        FAIR      41  26  55 W3        30.11S
DILLON         FAIR      36  26  67 VRB3      30.08S
ENNIS          PTSUNNY   37  23  56 NW5       30.11F
W YELLOWSTONE  FAIR      32  23  69 CALM      30.05F
THREE FORKS      N/A     40  29  65 CALM      30.09S
$$

MTZ009-010-012-014-046-048-049-054-191700-
EAST SLOPES AND CENTRAL MONTANA

CITY           SKY/WX    TMP DP  RH WIND       PRES   REMARKS
CUT BANK       FAIR      37  30  75 CALM      30.15F
GREAT FALLS    FAIR      39  29  67 W6        30.14F
HELENA         FAIR      44  24  45 NW6       30.12F
AUGUSTA        FAIR      38  27  64 NE7       30.13S
BOWMANS CRNR   FAIR      37  27  67 CALM      30.12S
CHOTEAU          N/A     37  30  75 NE6       30.17S
CONRAD           N/A     37  37 100 N3        30.16
FAIRFIELD      FAIR      38  30  73 NW5       30.14S
RAYNESFORD     FAIR      47  25  41 SE6       30.12F
ULM            FAIR      39  29  67 W3        30.14F
WHITE SULPHUR    N/A     39  23  52 VRB5      30.10S
$$

MTZ011-013-016-021-045-047-050-051-191700-
NORTH CENTRAL MONTANA

CITY           SKY/WX    TMP DP  RH WIND       PRES   REMARKS
HAVRE          FAIR      43  36  76 E18       30.18F
LEWISTOWN      FAIR      49  26  41 E16       30.13F
N BAR RANCH    FAIR      43  27  52 E9        30.19S
CHINOOK          N/A     39  36  87 MISG      30.22S
GEYSER         FAIR      49  22  34 SE17      30.12F
GRASS RANGE    FAIR      46  30  55 E13       30.14F
STANFORD       FAIR      47  23  39 S15       30.13S
$$

MTZ017>020-022>027-061-062-191700-
NORTHEAST MONTANA

CITY           SKY/WX    TMP DP  RH WIND       PRES   REMARKS
GLASGOW        CLOUDY    36  33  89 E21       30.30F FOG     WCI  25
GLENDIVE       CLOUDY    36  36 100 NE9       30.33F FOG     WCI  29
JORDAN           N/A     45  35  68 E16       30.24F
MALTA          MOSUNNY   37  34  87 E13       30.26S WCI  29
SIDNEY         CLOUDY    38  37  97 E6        30.38F
WOLF POINT     CLOUDY    37  35  92 E12       30.35F FOG     WCI  29
PLENTYWOOD       N/A     30  30 100 CALM      30.40S VSB 3/4
POPLAR           N/A     36  36 100 E10       30.37F VSB 1   WCI  28
$$

MTZ028>42-056>058-191700-
SOUTHCENTRAL AND SOUTHEAST MONTANA

CITY           SKY/WX    TMP DP  RH WIND       PRES   REMARKS
BAKER          FAIR      48  37  65 SE20      30.32F
BILLINGS       PTSUNNY   45  28  51 CALM      30.14S
LIVINGSTON     FAIR      43  25  49 NE12      30.11F
MILES CITY     FAIR      49  36  61 E8        30.25F
BIG TIMBER     SUNNY     43  25  49 E8        30.13
FORSYTH          N/A     46  36  66 E14       30.20F
HARLOWTON      FAIR      42  26  54 SE5       30.14F
LAUREL           N/A     45  27  49 VRB6      30.14F
ROUNDUP          N/A     49  27  42 NE10      30.05F
$$

REGIONAL REPORTS...DAKOTAS

CITY           SKY/WX    TMP DP  RH WIND       PRES   REMARKS
WILLISTON      CLOUDY    38  35  89 VRB5      30.41S FOG
MINOT          CLOUDY    40  35  83 NW7       30.42R HAZE
DICKINSON      PTSUNNY   41  39  93 E7        30.35S
BEACH          FAIR      48  37  66 SE14      30.36F
CROSBY         CLOUDY    32  32 100 SE5       30.43S FOG
TIOGA          CLOUDY    34  34 100 CALM      30.42R FOG
WATFORD CITY   CLOUDY    36  36 100 SE8       30.40S FOG     WCI  29
BISMARCK       FAIR      40  34  79 VRB3      30.44R
GRAND FORKS    FAIR      48  32  53 SE5       30.41R
FARGO          FAIR      48  29  47 W3        30.43R
BUFFALO SD       N/A     50  33  52 SE20      30.24F
RAPID CITY     FAIR      49  36  61 SE14      30.33F
$$

REGIONAL REPORTS...WYOMING/IDAHO/WASHINGTON

CITY           SKY/WX    TMP DP  RH WIND       PRES   REMARKS
GILLETTE         N/A     47  27  45 MISG      30.20F
SHERIDAN       FAIR      52  24  33 SE25G33   30.13F
BUFFALO WY     FAIR      46  25  43 SE15      30.17F
CODY           FAIR      43  22  43 CALM      30.13F
YELLOWSTONE LA   N/A     34  14  43 E3        30.10F
IDAHO FALLS    CLOUDY    45  28  51 N14       29.96F
SALMON         FAIR      43  27  53 CALM      30.07S
BOISE          PTSUNNY   47  34  60 W3        29.94F
SPOKANE        FAIR      44  32  62 NE9       30.14S
$$

REGIONAL REPORTS...ALBERTA

CITY           SKY/WX    TMP DP  RH WIND       PRES   REMARKS
CALGARY        MOSUNNY   41  21  45 S3        30.14F
CARDSTON         N/A     43  25  49 NW2         N/A
EDMONTON       SUNNY     45  23  42 S9        30.15F
FORT MCMURRAY  SUNNY     48  25  40 SW9       30.09F
HIGH LEVEL     MOSUNNY   39  25  56 S9        29.87F
LETHBRIDGE     PTSUNNY   43  28  56 S6G18     30.17F
LLOYDMINSTER   MOSUNNY   39  32  75 S7        30.22S
MEDICINE HAT   PTSUNNY   46  34  61 N5        30.19F
PEACE RIVER    MOSUNNY   37  25  60 S8        30.03S WCI  31
PINCHER CREEK  SUNNY     37  25  60 NW7       30.14F
WATERTON GATE    N/A     41  21  45 SW2         N/A
$$

REGIONAL REPORTS...SASKATCHEWAN

CITY           SKY/WX    TMP DP  RH WIND       PRES   REMARKS
CORONACH         N/A     32  30  93 E9          N/A  WCI  24
ESTEVAN        PTSUNNY   32  32 100 VRB2      30.42S FOG
REGINA         MOSUNNY   32  30  93 SE10      30.39S FOG     WCI  24
ROCKGLEN         N/A     32  34 100 SE8         N/A  WCI  25
SASKATOON      MOSUNNY   45  28  53 S14G20    30.33S
SWIFT CURRENT  SUNNY     43  28  56 S12       30.28S
VAL MARIE        N/A     43  30  61 SE9         N/A
$$




USA.gov is the U.S. government's official web portal to all federal, state and local government web resources and services.